User: anonymous   Login
Location: Embarras
(53.3000°N, 116.9000°W)
Time: 18:07:09
(UTC+00:00)
Language:

Cosmos 1420 Rocket - Orbit

View from above orbital plane
View from above orbital plane
View from above satellite
View from above satellite

Ground track
Ground track

The orbit data is extracted from the following two-line orbital elements,

1 13649U 82109B   24148.92396630  .00000326  00000-0  11656-3 0  9993
2 13649  74.0015  15.3321 0019066 294.7913 169.4379 14.37882538175803
Epoch (UTC): 27 May 2024 22:10:30
Eccentricity: 0.0019066
inclination: 74.0015°
perigee height: 752 km
apogee height: 779 km
right ascension of ascending node: 15.3321°
argument of perigee: 294.7913°
revolutions per day: 14.37882538
mean anomaly at epoch: 169.4379°
orbit number at epoch: 17580

The dashed part of the orbit path shows where the satellite is in the earth's shadow,  

DLR